Starlink 3386

operational
NORAD ID: 51126 Int'l Des: 2022-005 Owner: SPXS Country: US Constellation: starlink
LEOCIRCULAR

关于 Starlink 3386

正在加载描述...

实时位置

正在加载3D地球...

即将过境

高度历史

Altitude vs Time

uPlot chart will show altitude changes over time

两行轨道根数

1 51126U 22005Y 26062.00148145 -.00000316 00000-0 -17741-5 0 9990
2 51126 53.2187 329.1571 0001264 87.3217 272.7920 15.08839117227735
Epoch: Mar 3, 2026 • Age: 22 hours

当前状态

高度 558.1 km
速度 7.58 km/s
星下点 -50.62°S, 128.99°E
发射日期 Jan 19, 2022
运行时间 4.1 years
类型 internet

技术详情

分类 Payload
质量 297.00 kg
干质量 275.00 kg
总质量 297.00 kg
长度 0.20 m
直径 2.80 m
跨度 9.00 m
形状 Box + pan
制造商 SPXS
平台类型 Starlink
阶段状态 In Orbit
所有者/国家 SPXS/US

大型星座

Loading constellations...